Gove Airport

Airport
ICAO code: 
YPGV
IATA Code: 
GOV
Summary
ICAO Region: 
APAC
Territory: 
Location: 
Nhulunbuy, Northern Territory
Serving: 
Nhulunbuy
Elevation: 
205 ft
Coordinates: 
Aerial View: 
12° 16' 28.931" S, 136° 49' 34.172" E
Metar
Observation
YPGV 262330Z 31007KT 9999 FEW018 SCT280 FEW025CB 30/26 Q1009
Station
GOVE AIRPORT
Date/Time
2022-01-26 23:30:00
Wind direction
310°
Wind speed
07 kts
Lowest cloud amount
few clouds
Temperature
30°C
Dew point
26°C
Humidity
79%
QNH
1009 hPa
Weather condition
n/a

Gove Airport is on the Gove Peninsula in the Northern Territory of Australia. It services the mining town of Nhulunbuy and several Aboriginal communities including Yirrkala.

Runways

Designator Length Width Surface Rops
13/31 2208 45 ASP Yes/Yes
Airport map: 
Aerial View: 

SKYbrary Partners:

Safety knowledge contributed by: